Weather History for Holland, MI

Change the Weather History Date:

Saturday, January 19, 2013

  Actual Average Record
Temperature  
Mean Temperature 43 °F 26 °F  
Max Temperature 47 °F 32 °F 57 °F (1973)
Min Temperature 39 °F 20 °F -7 °F (1962)
Degree Days  
Heating Degree Days 22 39  
Month to date heating degree days 598 732  
Since 1 July heating degree days 2702 3000  
Cooling Degree Days 0 0  
Month to date cooling degree days 0 0  
Year to date cooling degree days 0 0  
Moisture  
Dew Point 31 °F    
Average Humidity 62    
Maximum Humidity 70    
Minimum Humidity 53    
Precipitation  
Precipitation 0.00 in 0.06 in 0.99 in (1949)
Month to date precipitation 1.20 1.28  
Year to date precipitation 1.20 1.28  
Sea Level Pressure  
Sea Level Pressure 29.79 in    
Wind  
Wind Speed 23 mph (SW)    
Max Wind Speed 37 mph    
Max Gust Speed 49 mph    
Visibility 10 miles    
Events      
T = Trace of Precipitation, MM = Missing Value Source: NWS Daily Summary

Daily Weather History Graph

Daily Weather History Graph

Search for Another Location

Airport:

Trip Planner

Search our weather history database for the weather conditions in past years. The results will help you decide how hot, cold, wet, or windy it might be!

Date:

Astronomy

Jan. 19, 2013 Rise Set
Actual Time 8:09 AM EST 5:41 PM EST
Civil Twilight 7:38 AM EST 6:12 PM EST
Nautical Twilight 7:04 AM EST 6:46 PM EST
Astronomical Twilight 6:30 AM EST 7:20 PM EST
Moon 12:08 PM EST (1/19) 1:41 AM EST (1/19)
Length of Visible Light 10h 33m
Length of Day
9h 31m
First Quarter, 57% of the Moon is Illuminated
Jan 19
First Quarter
Jan 26
Full
Feb 3
Last Quarter
Feb 10
New
Feb 17
First Quarter

Hourly Weather History & Observations

Time (EST) Temp. Windchill Dew Point Humidity Pressure Visibility Wind Dir Wind Speed Gust Speed Precip Events Conditions
12:53 AM 43.0 °F 32.9 °F 30.0 °F 60% 29.88 in 10.0 mi SW 27.6 mph 39.1 mph N/A   Clear
1:53 AM 42.1 °F 31.7 °F 30.0 °F 62% 29.88 in 10.0 mi SW 27.6 mph 42.6 mph N/A   Clear
2:53 AM 42.1 °F 32.6 °F 30.9 °F 65% 29.90 in 10.0 mi SW 23.0 mph 32.2 mph N/A   Clear
3:53 AM 42.1 °F 33.1 °F 30.9 °F 65% 29.89 in 10.0 mi SW 20.7 mph 33.4 mph N/A   Clear
4:53 AM 42.1 °F 33.1 °F 30.9 °F 65% 29.88 in 10.0 mi SW 20.7 mph 29.9 mph N/A   Clear
5:53 AM 42.1 °F 34.2 °F 32.0 °F 67% 29.90 in 10.0 mi SW 16.1 mph 21.9 mph N/A   Clear
6:53 AM 42.1 °F 34.2 °F 30.9 °F 65% 29.90 in 10.0 mi SW 16.1 mph - N/A   Mostly Cloudy
7:53 AM 42.1 °F 33.9 °F 30.9 °F 65% 29.89 in 10.0 mi SSW 17.3 mph 24.2 mph N/A   Overcast
8:53 AM 42.1 °F 34.9 °F 32.0 °F 67% 29.90 in 10.0 mi SSW 13.8 mph - N/A   Overcast
9:53 AM 42.1 °F 33.9 °F 32.0 °F 67% 29.89 in 10.0 mi SSW 17.3 mph 26.5 mph N/A   Scattered Clouds
10:53 AM 44.1 °F 35.4 °F 32.0 °F 63% 29.88 in 10.0 mi SSW 21.9 mph 28.8 mph N/A   Clear
11:53 AM 44.1 °F 35.2 °F 30.9 °F 60% 29.83 in 10.0 mi SSW 23.0 mph 27.6 mph N/A   Scattered Clouds
12:53 PM 44.1 °F 35.2 °F 30.9 °F 60% 29.79 in 10.0 mi SSW 23.0 mph 28.8 mph N/A   Mostly Cloudy
1:53 PM 44.1 °F 35.4 °F 30.9 °F 60% 29.76 in 10.0 mi SSW 21.9 mph 32.2 mph N/A   Mostly Cloudy
2:53 PM 45.0 °F 37.6 °F 30.9 °F 58% 29.73 in 10.0 mi SSW 17.3 mph 29.9 mph N/A   Overcast
3:53 PM 46.0 °F 38.5 °F 32.0 °F 58% 29.70 in 10.0 mi SW 19.6 mph 29.9 mph N/A   Overcast
4:53 PM 45.0 °F 36.0 °F 33.1 °F 63% 29.70 in 10.0 mi SW 25.3 mph 32.2 mph N/A   Overcast
5:53 PM 46.0 °F 38.0 °F 34.0 °F 63% 29.68 in 10.0 mi SW 21.9 mph 36.8 mph N/A   Mostly Cloudy
6:53 PM 46.0 °F 38.0 °F 35.1 °F 66% 29.70 in 10.0 mi SW 21.9 mph 28.8 mph N/A   Mostly Cloudy
7:53 PM 45.0 °F 36.6 °F 36.0 °F 71% 29.67 in 10.0 mi SW 21.9 mph 34.5 mph N/A   Overcast
8:53 PM 46.0 °F 37.2 °F 36.0 °F 68% 29.65 in 10.0 mi WSW 26.5 mph 35.7 mph N/A   Overcast
9:53 PM 45.0 °F 35.6 °F 33.1 °F 63% 29.64 in 10.0 mi West 27.6 mph 39.1 mph N/A   Mostly Cloudy
10:53 PM 44.1 °F 34.4 °F 28.0 °F 53% 29.64 in 10.0 mi West 27.6 mph 42.6 mph N/A   Partly Cloudy
11:53 PM 39.9 °F 30.0 °F 21.9 °F 49% 29.68 in 10.0 mi West 21.9 mph 43.7 mph N/A   Mostly Cloudy